TimeCDT,TemperatureF,Dew PointF,Humidity,Sea Level PressureIn,VisibilityMPH,Wind Direction,Wind SpeedMPH,Gust SpeedMPH,PrecipitationIn,Events,Conditions,WindDirDegrees,DateUTC
12:54 AM,37.0,25.0,62,29.96,10.0,West,4.6,-,N/A,,Clear,270,2012-11-01 05:54:00
1:54 AM,37.4,24.8,60,29.94,10.0,West,4.6,-,N/A,,Clear,270,2012-11-01 06:54:00
2:54 AM,34.0,23.0,64,29.96,10.0,West,4.6,-,N/A,,Clear,270,2012-11-01 07:54:00
3:54 AM,28.0,21.9,78,29.96,10.0,West,4.6,-,N/A,,Clear,270,2012-11-01 08:54:00
4:54 AM,32.0,23.0,69,29.97,10.0,West,5.8,-,N/A,,Clear,280,2012-11-01 09:54:00
5:54 AM,30.0,21.0,69,29.98,10.0,West,3.5,-,N/A,,Clear,260,2012-11-01 10:54:00
6:54 AM,28.4,21.2,74,29.98,10.0,West,3.5,-,N/A,,Clear,260,2012-11-01 11:54:00
7:54 AM,33.1,26.1,75,30.00,10.0,West,3.5,-,N/A,,Clear,260,2012-11-01 12:54:00
8:54 AM,39.0,27.0,62,30.01,10.0,West,4.6,-,N/A,,Overcast,270,2012-11-01 13:54:00
9:54 AM,44.6,26.6,49,30.01,10.0,West,5.8,-,N/A,,Overcast,270,2012-11-01 14:54:00
10:54 AM,48.2,26.6,43,30.02,10.0,West,10.4,-,N/A,,Partly Cloudy,260,2012-11-01 15:54:00
11:54 AM,53.1,24.1,32,30.01,10.0,West,11.5,-,N/A,,Clear,270,2012-11-01 16:54:00
12:54 PM,57.0,25.0,29,29.99,10.0,West,9.2,-,N/A,,Clear,280,2012-11-01 17:54:00
1:54 PM,57.0,21.9,26,29.96,10.0,WNW,4.6,16.1,N/A,,Clear,300,2012-11-01 18:54:00
2:54 PM,59.0,24.1,26,29.95,10.0,WNW,9.2,-,N/A,,Mostly Cloudy,290,2012-11-01 19:54:00
3:54 PM,57.9,28.9,33,29.94,10.0,WNW,8.1,-,N/A,,Overcast,290,2012-11-01 20:54:00
4:54 PM,55.0,32.0,42,29.93,10.0,SW,6.9,-,N/A,,Partly Cloudy,230,2012-11-01 21:54:00
5:54 PM,54.0,33.1,45,29.92,10.0,WSW,6.9,-,N/A,,Overcast,240,2012-11-01 22:54:00
6:54 PM,52.0,34.0,50,29.92,10.0,SW,4.6,-,N/A,,Overcast,220,2012-11-01 23:54:00
7:54 PM,53.1,34.0,48,29.91,10.0,Calm,Calm,-,N/A,,Overcast,0,2012-11-02 00:54:00
8:54 PM,50.0,36.0,59,29.91,10.0,SW,4.6,-,N/A,,Overcast,220,2012-11-02 01:54:00
9:54 PM,48.9,35.1,59,29.91,10.0,Calm,Calm,-,N/A,,Scattered Clouds,0,2012-11-02 02:54:00
10:54 PM,53.1,36.0,52,29.90,10.0,WSW,5.8,-,N/A,,Overcast,240,2012-11-02 03:54:00
11:54 PM,53.1,36.0,52,29.88,10.0,WSW,5.8,-,N/A,,Overcast,240,2012-11-02 04:54:00